Regional Weather Roundup
Issued by NWS

Home | Current Version | Previous Version | Text Only | Print | Product List | Glossary On
Versions: 1 2 3 4 5 6 7 8 9 10 11 12 13 14 15 16 17 18 19 20 21 22 23 24 25 26 27 28 29 30 31 32 33 34 35 36 37 38 39 40 41 42 43 44 45 46 47 48 49 50
000
ASUS45 KPSR 010610
RWRAZ

ARIZONA HOURLY REGIONAL WEATHER ROUNDUP
NATIONAL WEATHER SERVICE PHOENIX AZ
1100 PM MST FRI JUL 31 2015

NOTE: FAIR INDICATES FEW OR NO CLOUDS BELOW 12,000 FEET WITH NO
SIGNIFICANT WEATHER AND/OR OBSTRUCTIONS TO VISIBILITY.

AZZ001>003-036-010700-
NORTHWEST ARIZONA

CITY           SKY/WX    TMP DP  RH WIND       PRES   REMARKS
BULLHEAD CITY  CLOUDY   100  54  20 E13       29.84F
KINGMAN        CLOUDY    84  50  30 SE10      30.08F
6HR MIN TEMP:  83; 6HR MAX TEMP:  97;

$$

AZZ004>008-015-016-018-010700-
NORTH CENTRAL ARIZONA

CITY           SKY/WX    TMP DP  RH WIND       PRES   REMARKS
GRAND CANYON   CLOUDY    62  53  72 CALM      30.36F
6HR MIN TEMP:  61; 6HR MAX TEMP:  69; 6HR PCP: TRACE;

WILLIAMS       CLOUDY    63  52  67 SE5       30.42F
PRESCOTT       CLOUDY    68  64  87 S6        30.23F
6HR MIN TEMP:  67; 6HR MAX TEMP:  80; 6HR PCP:  0.27;

FLAGSTAFF      CLOUDY    60  54  80 CALM      30.39F
6HR MIN TEMP:  60; 6HR MAX TEMP:  68;

PAYSON         CLOUDY    70  59  68 NE5       30.26F
PAGE           MOCLDY    84  49  29 N6        30.14S
6HR MIN TEMP:  84; 6HR MAX TEMP:  98;

$$

AZZ009>014-017-010700-
NORTHEAST ARIZONA

CITY           SKY/WX    TMP DP  RH WIND       PRES   REMARKS
WINSLOW        LGT RAIN  72  58  61 CALM      30.27R
6HR MIN TEMP:  72; 6HR MAX TEMP:  88; 6HR PCP: TRACE;

SAINT JOHNS    CLOUDY    70  57  63 E5        30.30S
6HR MIN TEMP:  70; 6HR MAX TEMP:  74;

SHOW LOW       CLOUDY    63  55  77 S6        30.35S
$$

AZZ023-010700-
GREATER PHOENIX AREA

CITY           SKY/WX    TMP DP  RH WIND       PRES   REMARKS
PHOENIX        CLOUDY    82  71  69 SE10      29.92S
6HR MIN TEMP:  78; 6HR MAX TEMP:  88; 6HR PCP:  0.71;

LUKE AFB       CLOUDY    81  72  74 S2        29.93R
DEER VALLEY    CLOUDY    84  62  47 NE10      29.94F
6HR MIN TEMP:  81; 6HR MAX TEMP:  95; 6HR PCP:  0.02;

SCOTTSDALE     CLOUDY    84  66  54 CALM      29.95F
6HR MIN TEMP:  81; 6HR MAX TEMP:  93; 6HR PCP: TRACE;

MESA-GATEWAY   MOCLDY    81  66  61 SE6       29.96F
$$

AZZ027-028-010700-
SOUTHWEST MARICOPA COUNTY AND PINAL COUNTY

CITY           SKY/WX    TMP DP  RH WIND       PRES   REMARKS
CASA GRANDE    CLOUDY    77  70  78 E6        29.95S
6HR MIN TEMP:  73; 6HR MAX TEMP:  88; 6HR PCP:  1.18;

GILA BEND      MOCLDY    85  63  46 NE9       29.89S
6HR MIN TEMP:  83; 6HR MAX TEMP: 102; 6HR PCP:  0.06;

$$

AZZ503-504-507>509-010700-
SOUTHEAST ARIZONA

CITY           SKY/WX    TMP DP  RH WIND       PRES   REMARKS
TUCSON         MOCLDY    79  66  64 SE8       30.07F
6HR MIN TEMP:  77; 6HR MAX TEMP:  85; 6HR PCP:  0.01;

DAVIS-MONTHAN  CLOUDY    78  66  67 NE6       30.05F
6HR MIN TEMP:  76; 6HR MAX TEMP:  84; 6HR PCP:  0.01;

NOGALES        PTCLDY    71  63  75 N9        30.14R
6HR MIN TEMP:  69; 6HR MAX TEMP:  74; 6HR PCP: TRACE;

SIERRA VISTA   MOCLDY    67  61  79 S5        30.23F
6HR MIN TEMP:  66; 6HR MAX TEMP:  76; 6HR PCP:  0.57;

DOUGLAS          N/A    N/A N/A N/A MISG      30.17F
SAFFORD        CLOUDY    78  61  55 NW12      30.11R
6HR MIN TEMP:  76; 6HR MAX TEMP:  97;

$$

AZZ020-021-025-026-031-010700-
SOUTHWEST ARIZONA

CITY           SKY/WX    TMP DP  RH WIND       PRES   REMARKS
YUMA           MOCLDY    97  64  33 SE9       29.84R
6HR MIN TEMP:  97; 6HR MAX TEMP: 109;

$$

CAZ031-033-041-043-047-048-061-010700-
SOUTHERN CALIFORNIA

CITY           SKY/WX    TMP DP  RH WIND       PRES   REMARKS
DOWNTOWN L.A.  PTCLDY    68  64  87 CALM      29.96F
6HR MIN TEMP:  68; 6HR MAX TEMP:  79;

L.A. AIRPORT   MOCLDY    67  65  93 SW9       29.97F
6HR MIN TEMP:  67; 6HR MAX TEMP:  76;

SAN DIEGO      MOCLDY    70  63  78 NW5       29.99F
6HR MIN TEMP:  70; 6HR MAX TEMP:  76;

BURBANK        CLEAR     74  65  73 E5        29.97S
6HR MIN TEMP:  73; 6HR MAX TEMP:  91;

ONTARIO        MOCLDY    76  62  62 W7        29.97S
6HR MIN TEMP:  76; 6HR MAX TEMP:  94;

RIVERSIDE      PTCLDY    77  64  64 W5        29.97S
6HR MIN TEMP:  77; 6HR MAX TEMP:  93;

PALM SPRINGS   MOCLDY    94  58  29 W7        29.85F
6HR MIN TEMP:  94; 6HR MAX TEMP: 106;

EL CENTRO NAS  CLEAR     91  41  17 W10       29.81S
6HR MIN TEMP:  90; 6HR MAX TEMP: 111;

IMPERIAL       CLEAR     87  46  24 W7        29.79S
6HR MIN TEMP:  87; 6HR MAX TEMP: 110;

BLYTHE         MOCLDY    94  64  37 SE15G23   29.83R
6HR MIN TEMP:  94; 6HR MAX TEMP: 108;

NEEDLES        CLOUDY    98  58  26 S9        29.86S
6HR MIN TEMP:  98; 6HR MAX TEMP: 109;

$$

NVZ020-UTZ003-010700-
SOUTHERN NEVADA-UTAH

CITY           SKY/WX    TMP DP  RH WIND       PRES   REMARKS
LAS VEGAS      CLOUDY    94  53  25 S6        29.92F
6HR MIN TEMP:  94; 6HR MAX TEMP: 104;

SALT LAKE CITY PTCLDY    73  34  23 S6        30.12R
6HR MIN TEMP:  73; 6HR MAX TEMP:  94;

$$

NMZ009-TXZ055-010700-
NEW MEXICO-WEST TEXAS

CITY           SKY/WX    TMP DP  RH WIND       PRES   REMARKS
ALBUQUERQUE    CLOUDY    71  59  65 S9        30.31S
6HR MIN TEMP:  70; 6HR MAX TEMP:  82; 6HR PCP: TRACE;

EL PASO        PTCLDY    84  50  30 E8        30.13S
6HR MIN TEMP:  82; 6HR MAX TEMP:  93;

$$


........................KEY........................
SKY/WX - SKY CONDITION/WEATHER
TMP    - TEMPERATURE IN FAHRENHEIT
DP     - DEW POINT IN FAHRENHEIT
RH     - RELATIVE HUMIDITY IN PERCENT
WIND   - DIRECTION AND SPEED IN MILES PER HOUR (MPH)
VRB    - VARIABLE WIND DIRECTION
PRES   - MEAN SEA LEVEL PRESSURE IN INCHES OF MERCURY
         F - FALLING PRESSURE   R - RISING PRESSURE
         S - STEADY PRESSURE
VSB    - VISIBILITY IN MILES
HX     - HEAT INDEX IN FAHRENHEIT
WCI    - WIND CHILL INDEX IN FAHRENHEIT
TC     - TEMPERATURE IN CELSIUS WHICH IS ALSO KNOWN AS
         TEMPERATURE IN CENTIGRADE
AFB    - AIR FORCE BASE
         LUKE AFB IS LUKE AIR FORCE BASE
         DAVIS-MONTHAN IS DAVIS-MONTHAN AIR FORCE BASE
NAS    - NAVAL AIR STATION
         EL CENTRO NAS IS EL CENTRO NAVAL AIR STATION
N/A    - NOT AVAILABLE




USA.gov is the U.S. government's official web portal to all federal, state and local government web resources and services.